TimeMST,TemperatureF,Dew PointF,Humidity,Sea Level PressureIn,VisibilityMPH,Wind Direction,Wind SpeedMPH,Gust SpeedMPH,PrecipitationIn,Events,Conditions,WindDirDegrees,DateUTC
12:00 AM,44.4,17.1,33,-9999,-9999.0,West,23.0,34.5,N/A,,Unknown,260,2013-01-18 07:00:00
1:00 AM,44.6,14.7,30,-9999,-9999.0,West,33.4,44.9,N/A,,Unknown,260,2013-01-18 08:00:00
2:00 AM,41.0,17.2,38,-9999,-9999.0,SW,12.7,-,N/A,,Unknown,220,2013-01-18 09:00:00
3:00 AM,41.5,16.0,36,-9999,-9999.0,West,15.0,-,N/A,,Unknown,260,2013-01-18 10:00:00
4:00 AM,39.9,16.3,38,-9999,-9999.0,West,11.5,-,N/A,,Unknown,260,2013-01-18 11:00:00
5:00 AM,40,16,24,,,West,8.1,,,,,270,2013-01-18 12:00:00
5:00 AM,40.3,15.6,37,-9999,-9999.0,West,8.1,-,N/A,,Unknown,270,2013-01-18 12:00:00
6:00 AM,40.8,15.8,36,-9999,-9999.0,West,11.5,18.4,N/A,,Unknown,280,2013-01-18 13:00:00
7:00 AM,43.2,14.2,31,-9999,-9999.0,West,17.3,26.5,N/A,,Unknown,260,2013-01-18 14:00:00
8:00 AM,40.3,15.3,36,-9999,-9999.0,WSW,15.0,21.9,N/A,,Unknown,240,2013-01-18 15:00:00
9:00 AM,40.5,15.8,37,-9999,-9999.0,West,10.4,-,N/A,,Unknown,270,2013-01-18 16:00:00
10:00 AM,37.4,18.5,46,-9999,-9999.0,East,2.3,-,N/A,,Unknown,100,2013-01-18 17:00:00
11:00 AM,41,17,24,,,WNW,6.9,,,,,290,2013-01-18 18:00:00
11:00 AM,40.8,16.7,38,-9999,-9999.0,WNW,6.9,-,N/A,,Unknown,290,2013-01-18 18:00:00
12:00 PM,43.9,17.4,35,-9999,-9999.0,NW,11.5,19.6,N/A,,Unknown,320,2013-01-18 19:00:00
1:00 PM,44.4,19.2,37,-9999,-9999.0,West,15.0,21.9,N/A,,Unknown,260,2013-01-18 20:00:00
2:00 PM,47.1,17.6,31,-9999,-9999.0,West,18.4,26.5,N/A,,Unknown,280,2013-01-18 21:00:00
3:00 PM,47.7,18.5,31,-9999,-9999.0,West,15.0,24.2,N/A,,Unknown,280,2013-01-18 22:00:00
4:00 PM,46.4,19.0,34,-9999,-9999.0,West,15.0,25.3,N/A,,Unknown,280,2013-01-18 23:00:00
5:00 PM,43,19,24,,,West,16.1,,,,,270,2013-01-19 00:00:00
5:00 PM,43.2,18.7,38,-9999,-9999.0,West,16.1,23.0,N/A,,Unknown,270,2013-01-19 00:00:00
6:00 PM,41.5,18.9,40,-9999,-9999.0,West,16.1,25.3,N/A,,Unknown,270,2013-01-19 01:00:00
7:00 PM,41.7,19.2,41,-9999,-9999.0,West,16.1,26.5,N/A,,Unknown,270,2013-01-19 02:00:00
8:00 PM,41.2,18.7,40,-9999,-9999.0,West,13.8,20.7,N/A,,Unknown,260,2013-01-19 03:00:00
9:00 PM,38.5,17.8,43,-9999,-9999.0,WSW,5.8,-,N/A,,Unknown,250,2013-01-19 04:00:00
10:00 PM,39.2,16.7,40,-9999,-9999.0,WSW,10.4,-,N/A,,Unknown,250,2013-01-19 05:00:00
11:00 PM,41,15,22,,,West,13.8,,,,,260,2013-01-19 06:00:00
11:00 PM,41.2,15.4,35,-9999,-9999.0,West,13.8,20.7,N/A,,Unknown,260,2013-01-19 06:00:00